Stations météo

réclame
Mon MeteoGroup
Rheinstetten, Allemagne (10731): Température de l'air & dewpoint: 14.10.2018 04:00:00 - 20.10.2018 04:00:00 (CEST)Rheinstetten, Allemagne (10731): Température de l'air 5cm & Température de l'air -5cm: 14.10.2018 04:00:00 - 20.10.2018 04:00:00 (CEST)Rheinstetten, Allemagne (10731): Température de l'air -20cm & Température de l'air -100cm: 14.10.2018 04:00:00 - 20.10.2018 04:00:00 (CEST)Rheinstetten, Allemagne (10731): Vitesse du vent & gusts: 14.10.2018 04:00:00 - 20.10.2018 04:00:00 (CEST)Rheinstetten, Allemagne (10731): Direction du vent: 14.10.2018 04:00:00 - 20.10.2018 04:00:00 (CEST)Rheinstetten, Allemagne (10731): reduced air pressure: 14.10.2018 04:00:00 - 20.10.2018 04:00:00 (CEST)Rheinstetten, Allemagne (10731): visibility: 14.10.2018 04:00:00 - 20.10.2018 04:00:00 (CEST)Rheinstetten, Allemagne (10731): Ensoleillement: 14.10.2018 04:00:00 - 20.10.2018 04:00:00 (CEST)Rheinstetten, Allemagne (10731): Quantités de précipitations: 14.10.2018 04:00:00 - 20.10.2018 04:00:00 (CEST)
Date & Time tt [°C] td [°C] tt 5cm [°C] tt -5cm [°C] tt -20cm [°C] tt -100cm [°C] ff [km/h] ff [knt] fx [km/h] fx [knt] dd ppp [hPa] vv [km] sd [min] rr [mm]
20.10.2018 04:00:00 9,3 8,7 7,5 10,5 14,2 16,7 8 4 11 6 NNE 1025,4 4,0 0 0,0
20.10.2018 03:00:00 9,3 8,9 7,0 10,9 14,5 16,7 8 4 16 8 NNE 1025,4 4,7 0 0,0
20.10.2018 02:00:00 10,7 9,5 9,0 11,2 14,8 16,7 11 6 14 8 NNE 1024,9 6 0 0,0
20.10.2018 01:00:00 9,7 8,8 7,7 11,6 15,2 16,7 8 4 13 7 NE 1024,9 5 0 0,0
20.10.2018 00:00:00 10,8 9,3 8,5 12,2 15,6 16,7 9 5 13 7 NNE 1024,7 7 0 0,0
19.10.2018 23:00:00 10,1 8,9 7,8 12,6 16,0 16,7 8 4 10 5 NE 1024,6 8 0 0,0
19.10.2018 22:00:00 10,4 9,0 7,2 13,4 16,5 16,8 3 1 9 5 ENE 1024,0 8 0 0,0
19.10.2018 21:00:00 12,2 9,7 9,0 14,4 16,9 16,8 7 4 10 5 NE 1023,3 13 0 0,0
19.10.2018 20:00:00 12,4 9,5 10,2 15,6 17,4 16,8 7 4 9 5 NE 1022,9 13 0 0,0
19.10.2018 19:00:00 15,8 10,0 12,4 17,2 17,6 16,8 7 4 18 10 ENE 1022,0 15 0 0,0
19.10.2018 18:00:00 18,5 10,3 17,8 19,1 17,6 16,8 16 8 22 12 NE 1021,6 16 55 0,0
19.10.2018 17:00:00 19,3 10,3 20,3 20,6 17,3 16,8 15 8 26 14 ENE 1021,4 16 60 0,0
19.10.2018 16:00:00 19,3 10,1 22,0 21,4 16,7 16,8 16 9 26 14 NE 1021,6 16 60 0,0
19.10.2018 15:00:00 18,9 10,1 22,5 20,9 16,0 16,8 16 9 25 14 NNE 1021,9 14 60 0,0
19.10.2018 14:00:00 17,7 10,2 20,2 19,8 15,3 16,8 18 10 27 14 NE 1022,4 12 60 0,0
19.10.2018 13:00:00 16,3 10,0 20,0 18,4 14,6 16,8 16 9 24 13 ENE 1022,8 10 60 0,0
19.10.2018 12:00:00 14,2 9,9 17,3 16,1 14,0 16,8 18 10 24 13 ENE 1023,3 8 60 0,0
19.10.2018 11:00:00 12,3 9,4 14,3 13,6 13,7 16,8 14 8 21 12 NE 1023,4 7 54 0,0
19.10.2018 10:00:00 10,9 9,5 12,2 11,6 13,7 16,8 9 5 20 11 NE 1023,4 5 12 0,0
19.10.2018 09:00:00 9,5 9,0 9,0 10,5 13,9 16,8 16 9 21 12 NE 1023,1 3,8 0 0,0
19.10.2018 08:00:00 9,2 8,6 8,2 10,5 14,2 16,8 11 6 20 11 NE 1022,6 4,0 0 0,0
19.10.2018 07:00:00 9,7 8,9 8,6 10,8 14,5 16,8 13 7 18 10 NE 1022,1 4,5 0 0,0
19.10.2018 06:00:00 9,9 9,1 8,5 11,2 14,8 16,8 9 5 18 10 NE 1021,9 4,1 0 0,0
19.10.2018 05:00:00 10,7 9,6 9,5 11,6 15,1 16,8 13 7 18 10 NNE 1021,9 5 0 0,0
19.10.2018 04:00:00 11,0 10,0 9,6 12,1 15,4 16,8 11 6 18 10 NE 1021,8 4,5 0 0,0
19.10.2018 03:00:00 12,0 10,3 10,7 12,6 15,7 16,8 15 8 21 11 NNE 1021,8 7 0 0,0
19.10.2018 02:00:00 12,3 10,4 10,8 13,0 16,1 16,8 11 6 21 11 NNE 1021,9 7 0 0,0
19.10.2018 01:00:00 12,8 10,6 10,8 13,6 16,4 16,8 10 5 19 10 NNE 1021,8 8 0 0,0
19.10.2018 00:00:00 13,6 10,8 12,1 14,2 16,8 16,8 14 8 21 11 NNE 1021,6 10 0 0,0
18.10.2018 23:00:00 14,6 11,2 13,1 14,8 17,2 16,8 13 7 19 11 NNE 1021,6 12 0 0,0
18.10.2018 22:00:00 15,3 11,5 13,4 15,6 17,6 16,8 12 6 19 10 NNE 1021,2 13 0 0,0
18.10.2018 21:00:00 16,6 11,8 15,0 16,6 17,9 16,9 14 8 29 16 NNE 1020,8 16 0 0,0
18.10.2018 20:00:00 17,6 12,0 16,1 17,6 18,2 16,9 21 11 36 20 NNE 1020,2 19 0 0,0
18.10.2018 19:00:00 19,1 12,0 17,7 18,8 18,5 16,9 19 10 34 18 N 1019,5 23 0 0,0
18.10.2018 18:00:00 20,3 11,9 19,8 20,5 18,4 16,9 14 8 28 15 N 1018,9 28 53 0,0
18.10.2018 17:00:00 21,0 11,4 22,4 22,1 18,1 16,9 17 9 24 13 N 1018,8 11 60 0,0
18.10.2018 16:00:00 21,4 11,2 24,5 22,8 17,5 16,9 14 8 24 13 N 1018,9 25 60 0,0
18.10.2018 15:00:00 20,8 10,8 24,9 22,7 16,7 16,9 13 7 22 12 NNE 1019,3 26 60 0,0
18.10.2018 14:00:00 20,1 11,3 24,7 21,5 15,8 16,9 14 7 21 11 N 1019,6 25 60 0,0
18.10.2018 13:00:00 18,1 10,9 22,6 19,5 15,0 16,9 12 6 18 10 N 1020,3 23 60 0,0
18.10.2018 12:00:00 17,5 10,6 21,0 17,3 14,4 16,9 13 7 22 12 NNE 1020,4 26 60 0,0
18.10.2018 11:00:00 14,5 9,4 17,0 14,6 14,0 16,9 13 7 19 10 NNE 1020,6 19 60 0,0
18.10.2018 10:00:00 12,8 9,6 14,0 12,3 14,0 16,9 13 7 20 11 NE 1020,7 17 24 0,0
18.10.2018 09:00:00 10,9 8,6 10,4 11,2 14,2 16,9 11 6 17 9 NNE 1020,4 15 0 0,0
18.10.2018 08:00:00 10,2 8,4 9,1 11,2 14,4 16,9 11 6 16 8 NNE 1019,6 16 0 0,0
18.10.2018 07:00:00 10,8 8,6 9,5 11,5 14,6 16,9 11 6 16 9 NNE 1019,3 18 0 0,0
18.10.2018 06:00:00 11,2 9,0 9,7 11,9 14,8 16,9 10 6 14 7 NNE 1018,9 19 0 0,0
18.10.2018 05:00:00 11,6 9,2 10,1 12,1 15,1 16,9 9 5 13 7 NNE 1018,7 21 0 0,0
18.10.2018 04:00:00 11,9 9,2 9,7 12,4 15,3 16,9 8 4 14 8 NNE 1018,8 23 0 0,0
18.10.2018 03:00:00 12,7 9,6 11,1 12,8 15,6 16,9 13 7 16 8 NNE 1019,0 22 0 0,0
18.10.2018 02:00:00 13,0 9,9 11,4 13,1 15,9 17,0 11 6 13 7 NNE 1018,9 21 0 0,0
18.10.2018 01:00:00 12,9 9,8 10,7 13,3 16,2 17,0 8 4 11 6 NNE 1018,9 24 0 0,0
18.10.2018 00:00:00 11,6 10,2 9,7 13,6 16,6 17,0 6 3 9 5 NNE 1019,0 19 0 0,0
17.10.2018 23:00:00 11,3 9,5 9,2 14,2 17,0 17,0 5 3 7 4 NNE 1019,1 18 0 0,0
17.10.2018 22:00:00 13,4 10,6 9,5 15,0 17,4 17,0 3 2 6 4 N 1018,8 20 0 0,0
17.10.2018 21:00:00 13,7 10,7 10,2 15,9 17,8 17,0 5 3 10 6 E 1018,4 25 0 0,0
17.10.2018 20:00:00 16,5 10,9 13,4 17,2 18,2 17,0 8 4 16 9 NE 1017,7 25 0 0,0
17.10.2018 19:00:00 18,9 11,0 16,4 18,8 18,4 17,1 10 6 21 11 NNE 1017,3 32 0 0,0
17.10.2018 18:00:00 20,7 11,0 20,0 20,6 18,4 17,1 13 7 22 12 NNE 1016,9 37 10 0,0
17.10.2018 17:00:00 21,9 10,7 22,4 22,0 18,1 17,1 14 7 21 12 N 1016,9 37 33 0,0
17.10.2018 16:00:00 22,3 10,4 24,4 22,9 17,5 17,1 16 8 21 12 N 1017,0 40 60 0,0
17.10.2018 15:00:00 21,9 9,8 25,2 22,7 16,7 17,1 13 7 18 10 N 1017,4 32 60 0,0
17.10.2018 14:00:00 20,6 10,0 24,2 21,9 15,7 17,1 13 7 17 9 NNW 1018,2 33 60 0,0
17.10.2018 13:00:00 19,7 8,8 24,0 20,4 14,7 17,1 9 5 15 8 N 1018,7 32 60 0,0
17.10.2018 12:00:00 17,1 8,3 22,7 17,9 13,8 17,1 9 5 14 8 NNE 1019,5 30 60 0,0
17.10.2018 11:00:00 14,8 8,9 19,0 14,6 13,3 17,1 8 4 11 6 NNE 1019,7 24 60 0,0
17.10.2018 10:00:00 11,8 8,3 15,1 11,5 13,2 17,1 4 2 6 3 NNE 1019,7 23 60 0,0
17.10.2018 09:00:00 8,0 5,7 8,6 9,5 13,4 17,1 3 2 3 2 WSW 1019,9 20 35 0,0
17.10.2018 08:00:00 4,9 4,2 3,6 9,2 13,7 17,1 3 1 4 2 NE 1020,0 14 0 0,0
17.10.2018 07:00:00 5,3 4,8 3,4 9,6 14,0 17,1 4 2 4 2 S 1019,9 15 0 0,0
17.10.2018 06:00:00 5,8 5,2 3,9 10,0 14,3 17,1 4 2 5 3 SE 1019,6 17 0 0,0
17.10.2018 05:00:00 6,1 5,6 4,3 10,4 14,7 17,1 3 2 4 2 ESE 1019,4 13 0 0,0
17.10.2018 04:00:00 6,4 6,0 4,5 10,8 15,1 17,1 0 0 3 2 N 1019,6 11 0 0,0
17.10.2018 03:00:00 7,0 6,2 5,2 11,4 15,5 17,1 2 1 5 3 ENE 1019,9 18 0 0,0
17.10.2018 02:00:00 8,0 7,0 6,3 12,0 15,9 17,1 4 2 8 5 SSE 1019,7 21 0 0,0
17.10.2018 01:00:00 8,2 7,0 6,5 12,6 16,3 17,2 3 2 9 5 NE 1019,8 19 0 0,0
17.10.2018 00:00:00 9,1 8,2 7,2 13,2 16,8 17,2 7 4 9 5 SW 1019,7 19 0 0,0
16.10.2018 23:00:00 10,2 8,4 8,0 14,0 17,3 17,2 4 2 5 3 ESE 1019,7 27 0 0,0
16.10.2018 22:00:00 10,6 8,6 8,5 14,9 17,8 17,2 0 0 5 3 N 1019,5 29 0 0,0
16.10.2018 21:00:00 12,2 9,4 9,7 16,0 18,3 17,2 4 2 6 3 SSW 1019,1 31 0 0,0
16.10.2018 20:00:00 13,8 9,3 10,5 17,3 18,7 17,2 5 3 6 4 SE 1019,0 41 0 0,0
16.10.2018 19:00:00 17,5 9,0 14,2 19,2 19,0 17,2 5 3 19 10 ENE 1018,3 35 15 0,0
16.10.2018 18:00:00 21,6 8,9 21,0 21,5 19,0 17,3 13 7 20 11 NNE 1017,8 42 60 0,0
16.10.2018 17:00:00 23,2 9,2 25,3 23,4 18,6 17,3 15 8 20 11 N 1017,7 40 60 0,0
16.10.2018 16:00:00 23,7 9,1 27,3 24,0 17,8 17,3 11 6 19 10 N 1017,7 39 60 0,0
16.10.2018 15:00:00 22,7 8,7 26,3 23,8 16,9 17,3 13 7 21 11 NNE 1017,9 49 60 0,0
16.10.2018 14:00:00 21,7 8,9 26,6 22,5 15,8 17,3 13 7 18 10 N 1018,2 31 60 0,0
16.10.2018 13:00:00 19,1 8,7 24,7 20,3 14,8 17,3 12 6 17 9 N 1018,6 26 60 0,0
16.10.2018 12:00:00 16,3 8,4 20,8 17,4 14,0 17,3 3 2 7 4 N 1019,2 21 60 0,0
16.10.2018 11:00:00 14,4 8,2 16,4 14,3 13,6 17,3 4 2 8 4 W 1019,5 29 60 0,0
16.10.2018 10:00:00 11,7 7,5 13,2 11,4 13,5 17,3 0 0 3 2 N 1019,5 27 60 0,0
16.10.2018 09:00:00 6,5 5,3 7,7 9,4 13,7 17,3 3 2 5 3 S 1019,2 20 36 0,0
16.10.2018 08:00:00 4,4 4,0 2,9 9,2 14,0 17,3 0 0 5 3 N 1018,8 12 0 0,0
16.10.2018 07:00:00 4,9 4,6 2,9 9,6 14,4 17,3 2 1 4 2 E 1018,5 9 0 0,0
16.10.2018 06:00:00 5,3 4,8 3,3 10,1 14,8 17,3 2 1 4 2 S 1018,1 15 0 0,0
16.10.2018 05:00:00 6,2 5,7 3,8 10,6 15,2 17,3 3 2 5 3 SE 1017,6 15 0 0,0
16.10.2018 04:00:00 6,5 6,2 4,3 11,0 15,6 17,3 3 2 6 4 SW 1017,3 5 0 0,0
16.10.2018 03:00:00 7,2 6,7 5,1 11,6 16,0 17,3 0 0 5 3 N 1016,7 13 0 0,0
16.10.2018 02:00:00 8,3 8,1 5,4 12,3 16,5 17,3 4 2 5 3 S 1016,4 18 0 0,0
16.10.2018 01:00:00 8,9 8,4 6,4 13,0 17,0 17,2 3 1 8 4 SE 1016,0 21 0 0,0
16.10.2018 00:00:00 9,4 8,2 7,1 13,7 17,5 17,3 5 3 8 4 NNE 1015,8 18 0 0,0
15.10.2018 23:00:00 10,0 8,9 7,6 14,6 18,0 17,3 0 0 6 3 N 1015,5 23 0 0,0
15.10.2018 22:00:00 12,3 9,9 9,4 15,6 18,5 17,3 3 2 8 4 NNE 1015,1 31 0 0,0
15.10.2018 21:00:00 12,9 10,0 10,5 16,7 19,1 17,3 2 1 6 3 ESE 1014,7 34 0 0,0
15.10.2018 20:00:00 14,6 9,9 11,8 18,2 19,6 17,3 4 2 6 3 ENE 1014,2 35 0 0,0
15.10.2018 19:00:00 17,6 9,4 14,5 20,1 19,8 17,3 6 3 13 7 ENE 1013,7 28 19 0,0
15.10.2018 18:00:00 22,5 9,6 21,9 22,5 19,8 17,3 10 6 17 9 NE 1013,0 41 60 0,0
15.10.2018 17:00:00 23,0 9,4 24,6 24,1 19,4 17,3 12 7 19 11 NE 1012,8 44 60 0,0
15.10.2018 16:00:00 23,0 9,2 26,2 24,8 18,7 17,3 13 7 23 12 NE 1012,8 42 60 0,0
15.10.2018 15:00:00 22,5 9,1 26,1 24,7 17,8 17,3 11 6 19 10 NE 1013,1 43 60 0,0
15.10.2018 14:00:00 21,9 10,0 27,1 23,6 16,8 17,3 9 5 15 8 N 1013,4 9 60 0,0
15.10.2018 13:00:00 20,1 9,7 25,3 21,5 15,8 17,3 6 4 10 6 NNW 1014,0 44 60 0,0
15.10.2018 12:00:00 17,8 9,1 22,3 18,6 15,0 17,3 5 3 10 6 NW 1014,5 40 60 0,0
15.10.2018 11:00:00 16,1 9,0 19,1 15,6 14,5 17,3 2 1 6 3 WNW 1014,7 38 60 0,0
15.10.2018 10:00:00 14,4 9,0 15,3 12,9 14,4 17,3 0 0 5 3 N 1014,7 37 60 0,0
15.10.2018 09:00:00 9,3 7,7 10,0 10,8 14,6 17,3 3 1 4 2 SE 1014,7 32 39 0,0
15.10.2018 08:00:00 6,5 6,1 4,7 10,6 14,9 17,3 2 1 4 2 S 1014,3 22 0 0,0
15.10.2018 07:00:00 6,8 6,3 5,1 11,0 15,3 17,3 3 2 6 3 SSE 1013,7 20 0 0,0
15.10.2018 06:00:00 7,1 6,3 5,4 11,5 15,6 17,2 3 1 4 2 S 1013,4 28 0 0,0
15.10.2018 05:00:00 8,1 7,6 6,2 11,9 16,0 17,2 3 1 8 4 S 1013,1 28 0 0,0
15.10.2018 04:00:00 7,8 7,2 6,2 12,2 16,4 17,2 3 2 7 4 SSE 1013,2 19 0 0,0
15.10.2018 03:00:00 9,0 8,7 6,7 12,7 16,9 17,2 2 1 5 3 E 1012,9 15 0 0,0
15.10.2018 02:00:00 9,8 9,4 6,5 13,2 17,4 17,2 6 3 9 5 SW 1012,4 10 0 0,0
15.10.2018 01:00:00 9,5 9,3 6,9 13,9 17,9 17,2 2 1 8 4 SSE 1012,1 11 0 0,0
15.10.2018 00:00:00 10,6 10,0 9,1 14,8 18,4 17,2 5 3 9 5 SW 1011,8 29 0 0,0
14.10.2018 23:00:00 11,5 10,2 9,6 15,7 19,0 17,2 4 2 7 4 E 1011,4 39 0 0,0
14.10.2018 22:00:00 12,6 11,0 9,7 16,8 19,6 17,2 0 0 6 4 N 1011,1 38 0 0,0
14.10.2018 21:00:00 14,1 11,7 11,6 18,1 20,2 17,2 4 2 7 4 S 1011,0 38 0 0,0
14.10.2018 20:00:00 16,3 11,3 12,8 19,8 20,7 17,2 4 2 6 4 SSE 1010,7 54 0 0,0
14.10.2018 19:00:00 20,4 10,6 16,7 21,9 21,0 17,2 4 2 11 6 SSE 1010,5 53 24 0,0
14.10.2018 18:00:00 24,8 11,1 24,4 24,5 20,9 17,2 10 5 16 9 WSW 1010,1 68 60 0,0
14.10.2018 17:00:00 26,2 11,0 27,6 26,3 20,4 17,2 8 4 13 7 SW 1010,0 55 60 0,0
14.10.2018 16:00:00 26,4 12,0 29,8 27,0 19,6 17,2 8 5 14 8 W 1010,2 47 60 0,0
14.10.2018 15:00:00 26,1 11,6 29,8 26,6 18,5 17,2 5 3 15 8 NW 1010,3 64 60 0,0
14.10.2018 14:00:00 24,7 12,8 29,7 25,0 17,4 17,2 11 6 18 10 NW 1011,1 48 60 0,0
14.10.2018 13:00:00 22,8 12,3 27,6 22,8 16,4 17,2 13 7 19 10 N 1011,8 61 60 0,0
14.10.2018 12:00:00 20,4 11,7 24,5 19,9 15,5 17,2 10 6 18 10 NE 1012,6 37 60 0,0
14.10.2018 11:00:00 17,6 11,2 21,4 16,7 15,0 17,2 11 6 16 9 N 1013,5 22 60 0,0
14.10.2018 10:00:00 13,9 10,4 17,5 13,8 14,8 17,2 5 3 8 5 NNW 1014,0 35 60 0,0
14.10.2018 09:00:00 10,2 8,8 11,4 11,6 15,0 17,2 6 3 8 4 WSW 1014,4 24 43 0,0
14.10.2018 08:00:00 7,4 6,9 5,9 11,3 15,3 17,2 5 3 6 3 NNW 1014,5 24 0 0,0
14.10.2018 07:00:00 7,9 7,5 6,5 11,7 15,7 17,1 3 2 4 2 NE 1014,8 21 0 0,0
14.10.2018 06:00:00 8,5 8,2 6,4 12,1 16,0 17,1 2 1 5 3 ENE 1015,3 18 0 0,0
14.10.2018 05:00:00 8,7 8,3 6,9 12,5 16,4 17,1 3 2 5 3 ESE 1015,4 25 0 0,0
14.10.2018 04:00:00 9,4 8,9 6,9 13,0 16,8 17,1 4 2 5 3 SE 1015,7 22 0 0,0

tt = Température de l'air
td = dewpoint
tt 5cm = Température de l'air 5cm
tt -5cm = Température de l'air -5cm
tt -20cm = Température de l'air -20cm
tt -100cm = Température de l'air -100cm
ff = Vitesse du vent
fx = gusts
dd = Direction du vent
ppp = reduced air pressure
vv = visibility
sd = Ensoleillement
rr = Quantités de précipitations

stations d'obs. à proximité